| time (UTC) | temp F | wind direction | speed knots | gust knots | rain 1hr in | rain 24hr in | rain mn in | humidity % | barometer mb |
| 20260906224837 | 85 | 264 | 3.5 | 10.4 | 0.00 | 0.00 | 0.00 | 16 | 1030.6 |
| 20260906223324 | 85 | 259 | 4.3 | 8.7 | 0.00 | 0.00 | 0.00 | 16 | 1030.7 |
| 20260906221817 | 87 | 246 | 5.2 | 12.2 | 0.00 | 0.00 | 0.00 | 15 | 1030.7 |
| 20260906220314 | 85 | 256 | 3.5 | 13.0 | 0.00 | 0.00 | 0.00 | 17 | 1030.9 |
| 20260906214829 | 84 | 212 | 2.6 | 8.7 | 0.00 | 0.00 | 0.00 | 17 | 1031.2 |
| 20260906213344 | 84 | 228 | 1.7 | 9.6 | 0.00 | 0.00 | 0.00 | 16 | 1031.5 |
| 20260906211815 | 86 | 251 | 3.5 | 8.7 | 0.00 | 0.00 | 0.00 | 15 | 1031.6 |
| 20260906210328 | 86 | 235 | 1.7 | 7.0 | 0.00 | 0.00 | 0.00 | 16 | 1031.6 |
| 20260906204843 | 84 | 261 | 0.9 | 8.7 | 0.00 | 0.00 | 0.00 | 17 | 1031.9 |
| 20260906203338 | 83 | 255 | 4.3 | 9.6 | 0.00 | 0.00 | 0.00 | 17 | 1031.8 |
| 20260906201829 | 82 | 214 | 2.6 | 7.8 | 0.00 | 0.00 | 0.00 | 18 | 1032.1 |
| 20260906200330 | 81 | 231 | 2.6 | 7.8 | 0.00 | 0.00 | 0.00 | 18 | 1032.1 |
| 20260906194817 | 81 | 200 | 4.3 | 9.6 | 0.00 | 0.00 | 0.00 | 18 | 1032.2 |
| 20260906193338 | 81 | 181 | 4.3 | 7.8 | 0.00 | 0.00 | 0.00 | 18 | 1032.1 |
| 20260906191824 | 81 | 241 | 0.9 | 7.8 | 0.00 | 0.00 | 0.00 | 19 | 1032.6 |
| 20260906190318 | 81 | 181 | 2.6 | 10.4 | 0.00 | 0.00 | 0.00 | 18 | 1032.9 |
| 20260906184812 | 79 | 204 | 1.7 | 8.7 | 0.00 | 0.00 | 0.00 | 19 | 1033.0 |
| 20260906183327 | 79 | 238 | 0.9 | 9.6 | 0.00 | 0.00 | 0.00 | 22 | 1033.1 |
| 20260906181819 | 79 | 268 | 2.6 | 9.6 | 0.00 | 0.00 | 0.00 | 20 | 1033.6 |
| 20260906180334 | 79 | 209 | 3.5 | 9.6 | 0.00 | 0.00 | 0.00 | 20 | 1033.6 |
| 20260906174828 | 79 | 287 | 0.9 | 10.4 | 0.00 | 0.00 | 0.00 | 20 | 1033.6 |
| 20260906173322 | 78 | 215 | 2.6 | 7.0 | 0.00 | 0.00 | 0.00 | 20 | 1033.6 |
| 20260906171814 | 77 | 224 | 2.6 | 6.1 | 0.00 | 0.00 | 0.00 | 21 | 1033.8 |
| 20260906170328 | 77 | 253 | 2.6 | 11.3 | 0.00 | 0.00 | 0.00 | 22 | 1033.7 |
| 20260906164843 | 75 | 241 | 1.7 | 9.6 | 0.00 | 0.00 | 0.00 | 21 | 1033.4 |
| 20260906163316 | 75 | 268 | 2.6 | 8.7 | 0.00 | 0.00 | 0.00 | 21 | 1033.3 |
| 20260906161830 | 74 | 157 | 3.5 | 7.0 | 0.00 | 0.00 | 0.00 | 22 | 1033.3 |
| 20260906160345 | 72 | 237 | 1.7 | 7.8 | 0.00 | 0.00 | 0.00 | 24 | 1033.3 |
| 20260906154840 | 70 | 216 | 0.9 | 6.1 | 0.00 | 0.00 | 0.00 | 25 | 1033.1 |
| 20260906153314 | 66 | 36 | 1.7 | 3.5 | 0.00 | 0.00 | 0.00 | 28 | 1033.2 |
| 20260906151828 | 64 | 39 | 1.7 | 6.1 | 0.00 | 0.00 | 0.00 | 34 | 1033.1 |
| 20260906150322 | 62 | 39 | 0.0 | 1.7 | 0.00 | 0.00 | 0.00 | 39 | 1033.2 |
| 20260906144816 | 60 | 39 | 0.0 | 4.3 | 0.00 | 0.00 | 0.00 | 45 | 1033.2 |
| 20260906143351 | 58 | 41 | 2.6 | 5.2 | 0.00 | 0.00 | 0.00 | 49 | 1033.2 |
| 20260906141823 | 54 | 32 | 2.6 | 7.8 | 0.00 | 0.00 | 0.00 | 54 | 1033.0 |
| 20260906140339 | 50 | 27 | 0.0 | 0.9 | 0.00 | 0.00 | 0.00 | 66 | 1033.0 |
| 20260906134815 | 49 | 26 | 0.0 | 0.0 | 0.00 | 0.00 | 0.00 | 68 | 1032.9 |
| 20260906133330 | 49 | 27 | 0.0 | 0.0 | 0.00 | 0.00 | 0.00 | 66 | 1032.7 |
| 20260906131823 | 49 | 26 | 0.0 | 0.0 | 0.00 | 0.00 | 0.00 | 64 | 1032.4 |
| 20260906130336 | 50 | 27 | 0.0 | 2.6 | 0.00 | 0.00 | 0.00 | 62 | 1032.2 |
| 20260906124830 | 51 | 26 | 1.7 | 3.5 | 0.00 | 0.00 | 0.00 | 61 | 1032.1 |
| 20260906123325 | 51 | 32 | 1.7 | 7.0 | 0.00 | 0.00 | 0.00 | 62 | 1032.1 |
| 20260906121818 | 52 | 32 | 0.0 | 3.5 | 0.00 | 0.00 | 0.00 | 60 | 1031.9 |
| 20260906120333 | 52 | 33 | 0.9 | 3.5 | 0.00 | 0.00 | 0.00 | 59 | 1032.0 |
| 20260906114826 | 52 | 30 | 1.7 | 5.2 | 0.00 | 0.00 | 0.00 | 60 | 1032.0 |
| 20260906113343 | 52 | 33 | 2.6 | 4.3 | 0.00 | 0.00 | 0.00 | 60 | 1031.9 |
| 20260906111835 | 54 | 33 | 0.0 | 4.3 | 0.00 | 0.00 | 0.00 | 58 | 1031.8 |
| 20260906110323 | 53 | 39 | 1.7 | 6.1 | 0.00 | 0.00 | 0.00 | 59 | 1032.0 |
| 20260906104816 | 53 | 23 | 2.6 | 4.3 | 0.00 | 0.00 | 0.00 | 58 | 1031.8 |
| 20260906103339 | 54 | 23 | 2.6 | 3.5 | 0.00 | 0.00 | 0.00 | 56 | 1031.7 |
| 20260906101851 | 54 | 23 | 4.3 | 7.8 | 0.00 | 0.00 | 0.00 | 56 | 1031.8 |
| 20260906100322 | 51 | 57 | 0.9 | 4.3 | 0.00 | 0.00 | 0.00 | 63 | 1031.8 |
| 20260906094815 | 51 | 185 | 0.0 | 1.7 | 0.00 | 0.00 | 0.00 | 64 | 1031.8 |
| 20260906093351 | 50 | 191 | 0.0 | 1.7 | 0.00 | 0.00 | 0.00 | 63 | 1031.9 |
| 20260906091822 | 50 | 192 | 0.0 | 1.7 | 0.00 | 0.00 | 0.00 | 63 | 1031.8 |
| 20260906090336 | 51 | 191 | 0.0 | 0.9 | 0.00 | 0.00 | 0.00 | 62 | 1031.9 |
| 20260906084830 | 51 | 191 | 0.0 | 2.6 | 0.00 | 0.00 | 0.00 | 61 | 1031.9 |
| 20260906083324 | 52 | 191 | 0.0 | 0.0 | 0.00 | 0.00 | 0.00 | 61 | 1032.0 |
| 20260906081817 | 52 | 191 | 0.0 | 1.7 | 0.00 | 0.00 | 0.00 | 60 | 1032.2 |
| 20260906080310 | 53 | 191 | 0.0 | 0.0 | 0.00 | 0.00 | 0.00 | 59 | 1032.2 |
| 20260906074825 | 53 | 191 | 0.0 | 0.0 | 0.00 | 0.00 | 0.00 | 59 | 1032.3 |
| 20260906073320 | 53 | 191 | 0.0 | 0.0 | 0.00 | 0.00 | 0.00 | 58 | 1032.4 |
| 20260906071833 | 53 | 191 | 0.0 | 0.0 | 0.00 | 0.00 | 0.00 | 59 | 1032.5 |
| 20260906070347 | 52 | 191 | 0.0 | 0.0 | 0.00 | 0.00 | 0.00 | 58 | 1032.4 |
| 20260906064821 | 53 | 191 | 0.0 | 0.0 | 0.00 | 0.00 | 0.00 | 56 | 1032.6 |
| 20260906063316 | 53 | 191 | 0.0 | 0.0 | 0.00 | 0.00 | 0.00 | 55 | 1032.6 |
| 20260906061829 | 54 | 191 | 0.0 | 0.0 | 0.00 | 0.00 | 0.00 | 56 | 1032.5 |
| 20260906060343 | 54 | 191 | 0.0 | 0.0 | 0.00 | 0.00 | 0.00 | 56 | 1032.4 |
| 20260906054837 | 55 | 191 | 0.0 | 0.0 | 0.00 | 0.00 | 0.00 | 56 | 1032.6 |
| 20260906053314 | 55 | 191 | 0.0 | 0.0 | 0.00 | 0.00 | 0.00 | 54 | 1032.6 |
| 20260906051827 | 56 | 191 | 0.0 | 0.0 | 0.00 | 0.00 | 0.00 | 53 | 1032.8 |
| 20260906050343 | 57 | 191 | 0.0 | 0.0 | 0.00 | 0.00 | 0.00 | 51 | 1032.8 |
| 20260906044816 | 58 | 191 | 0.0 | 0.0 | 0.00 | 0.00 | 0.00 | 49 | 1032.9 |
| 20260906043331 | 60 | 191 | 0.0 | 0.0 | 0.00 | 0.00 | 0.00 | 47 | 1032.9 |
| 20260906041825 | 61 | 191 | 0.0 | 0.9 | 0.00 | 0.00 | 0.00 | 45 | 1033.0 |
| 20260906040319 | 62 | 191 | 0.0 | 0.9 | 0.00 | 0.00 | 0.00 | 41 | 1033.0 |
| 20260906034813 | 64 | 191 | 0.0 | 1.7 | 0.00 | 0.00 | 0.00 | 39 | 1033.0 |
| 20260906033328 | 66 | 191 | 0.0 | 2.6 | 0.00 | 0.00 | 0.00 | 37 | 1033.1 |
| 20260906031842 | 66 | 191 | 0.0 | 2.6 | 0.00 | 0.00 | 0.00 | 35 | 1033.0 |
| 20260906030336 | 66 | 191 | 2.6 | 5.2 | 0.00 | 0.00 | 0.00 | 35 | 1032.7 |
| 20260906024830 | 67 | 191 | 3.5 | 7.8 | 0.00 | 0.00 | 0.00 | 35 | 1032.6 |
| 20260906023325 | 67 | 154 | 0.9 | 6.1 | 0.00 | 0.00 | 0.00 | 36 | 1032.3 |
| 20260906021816 | 67 | 228 | 4.3 | 9.6 | 0.00 | 0.00 | 0.00 | 37 | 1032.2 |
| 20260906020352 | 67 | 269 | 0.9 | 5.2 | 0.00 | 0.00 | 0.00 | 37 | 1032.3 |
| 20260906014825 | 68 | 270 | 0.0 | 0.9 | 0.00 | 0.00 | 0.00 | 35 | 1032.2 |
| 20260906013320 | 70 | 270 | 0.0 | 1.7 | 0.00 | 0.00 | 0.00 | 34 | 1032.1 |
| 20260906011812 | 72 | 270 | 0.0 | 1.7 | 0.00 | 0.00 | 0.00 | 30 | 1032.2 |
| 20260906010326 | 74 | 271 | 2.6 | 7.8 | 0.00 | 0.00 | 0.00 | 27 | 1032.4 |
| 20260906004820 | 75 | 273 | 0.9 | 9.6 | 0.00 | 0.00 | 0.00 | 27 | 1032.3 |
| 20260906003337 | 77 | 185 | 0.9 | 7.0 | 0.00 | 0.00 | 0.00 | 26 | 1032.1 |
| 20260906001828 | 78 | 261 | 3.5 | 7.0 | 0.00 | 0.00 | 0.00 | 25 | 1031.9 |
| 20260906000315 | 78 | 296 | 2.6 | 13.0 | 0.00 | 0.00 | 0.00 | 26 | 1032.0 |
| 20260905234836 | 77 | 255 | 3.5 | 8.7 | 0.00 | 0.00 | 0.00 | 25 | 1032.1 |
| 20260905233323 | 80 | 246 | 3.5 | 10.4 | 0.00 | 0.00 | 0.00 | 23 | 1031.9 |
| 20260905231816 | 80 | 232 | 2.6 | 11.3 | 0.00 | 0.00 | 0.00 | 25 | 1031.8 |
| 20260905230311 | 80 | 222 | 5.2 | 8.7 | 0.00 | 0.00 | 0.00 | 23 | 1031.9 |